Location: Ravensburg
(47.7866°N, 9.6124°E)
Time: 06:27:19
(UTC+01:00)

PCSat - Visible Passes

Search period start: 07 March 2026 00:00
Search period end: 17 March 2026 00:00
Orbit: 780 x 790 km, 67.1° (Epoch: 6 March)

Date Brightness Start Highest point End Pass type
(mag) Time Alt. Az. Time Alt. Az. Time Alt. Az.
7 Mar 12.1 02:23:58 16° NNE 02:23:58 16° NNE 02:25:08 10° NNE visible
7 Mar 11.9 04:04:34 12° NNW 04:05:22 12° NNW 04:07:25 10° N visible
7 Mar 12.1 05:50:49 10° N 05:51:19 10° N 05:51:50 10° NNE visible
8 Mar 12.4 01:52:17 13° NNE 01:52:17 13° NNE 01:52:54 10° NNE visible
8 Mar 11.9 03:32:53 14° NNW 03:32:53 14° NNW 03:35:19 10° N visible
9 Mar 12.6 01:20:35 10° NNE 01:20:35 10° NNE 01:20:38 10° NNE visible
9 Mar 11.9 03:01:11 15° N 03:01:11 15° N 03:03:10 10° N visible
10 Mar 12.1 02:29:28 15° N 02:29:28 15° N 02:31:00 10° NNE visible
10 Mar 12.0 05:56:03 10° N 05:58:43 14° NNE 06:01:23 10° NE visible
11 Mar 12.2 01:57:42 14° N 01:57:42 14° N 01:58:48 10° NNE visible
11 Mar 12.1 03:39:25 10° NNW 03:40:00 10° N 03:40:35 10° N visible
11 Mar 12.1 05:23:57 10° N 05:25:57 12° NNE 05:27:58 10° NE visible
12 Mar 12.4 01:25:58 13° NNE 01:25:58 13° NNE 01:26:35 10° NNE visible
12 Mar 12.1 03:06:32 11° NNW 03:07:12 11° NNW 03:08:45 10° N visible
12 Mar 12.2 04:51:54 10° N 04:53:10 11° NNE 04:54:24 10° NNE visible
13 Mar 12.5 00:54:10 11° NNE 00:54:10 11° NNE 00:54:22 10° NNE visible
13 Mar 12.1 02:34:45 12° NNW 02:34:45 12° NNW 02:36:41 10° N visible
13 Mar 11.8 06:01:46 10° NNW 06:05:51 21° NNE 06:09:55 10° E visible
14 Mar 12.2 02:02:57 13° N 02:02:57 13° N 02:04:33 10° N visible
14 Mar 12.0 05:29:35 10° NNW 05:33:12 18° NNE 05:36:48 10° ENE visible
15 Mar 12.3 01:31:06 14° N 01:31:06 14° N 01:32:24 10° NNE visible
15 Mar 12.1 04:57:26 10° N 05:00:30 15° NNE 05:03:34 10° ENE visible
16 Mar 12.3 00:59:13 14° N 00:59:13 14° N 01:00:13 10° NNE visible
16 Mar 12.2 04:25:18 10° N 04:27:45 13° NNE 04:30:13 10° NE visible
